Погода в Лукоме

Россия / Псковская область     57°55′09″N   30°02′07″E
темп.,
°C
ветер,
м/с
пор.,
м/с
влажн.,
%
обл.,
%
осадки,
мм/ч
давл.,
гПа
погр.,
м
30 ноября, вт
вт3000:00−1св41098100 3.5 984359
03:000ссв3999100 5.4 980326
06:00−2ссз4998100 1.4 977339
09:00−3сз51196100 4.6 975387
12:00−3сз61395100 1.9 975623
15:00−3зсз71494100 3.4 975809
18:00−4зсз71491100 0.6 977928
21:00−4з61291100 1.0 9791047
1 декабря, ср
ср100:00−5з51290100 0.2 981932
03:00−6з51291100 0.3 983726
06:00−7зюз51290100 0.1 985598
09:00−7з5129193 0.1 988570
12:00−6з4118990 0.0 990796
15:00−5з498895 0.1 991760
18:00−7зюз4109466 0.0 993287
21:00−11зюз399655 0.0 994175
2 декабря, чт
чт200:00−15юз249875 0.0 99560
03:00−16ююв1198100 0.0 99520
06:00−7юв2696100 0.1 993191
09:00−5вюв31096100 0.8 991442
12:00−4вюв41196100 0.9 990615
15:00−3вюв4995100 1.9 988518
18:00−3в4996100 1.7 987391
21:00−1вюв2699100 3.7 987364
3 декабря, пт
пт300:000ю4119899 0.9 988809
03:000ю41198100 1.7 989965
06:00−1ююз61395100 1.2 990893
09:00−2юз61283100 1.3 993893
12:00−1ююз61387100 0.1 9941315
15:00−1ююз61384100 0.2 9941252
18:00−2юз6118796 0.1 996892
21:00−5юз5129096 0.2 997696
4 декабря, сб
сб400:00−5зюз51291100 0.1 998703
03:00−5зюз51291100 0.1 999750
06:00−5зюз51192100 0.1 1000884
09:00−6юз41094100 0.1 1001530
12:00−7юз3109468 0.0 1003368
15:00−7юз389518 0.0 1005229
18:00−12юз239985 0.0 100743
21:00−15зюз11100100 0.0 100812